Location: Hopewell Observatory
(38.8698°N, 77.6988°W)
Time: 20:01:18
(UTC-04:00)

Cosmos 2333 Rocket - Pass Details

Date: 26 May 2018
Orbit: 839 x 863 km, 70.8° (Epoch: 19 October)

Event Time Altitude Azimuth Distance (km) Brightness Sun altitude
Rises 23:17:06 0° 338° (NNW) 3,415 6.7 -24.5°
Reaches altitude 10° 23:19:33 10° 340° (NNW) 2,479 5.7 -24.7°
Maximum altitude 23:25:15 75° 66° (ENE) 885 2.2 -25.2°
Enters shadow 23:26:00 65° 121° (ESE) 935 2.1 -25.3°
